Stations météo

réclame
Mon MeteoGroup
Westdorpe aws, Pays-Bas (6319): Température de l'air & dewpoint: 19.04.2018 10:00:00 - 25.04.2018 10:00:00 (CEST)Westdorpe aws, Pays-Bas (6319): Température de l'air 5cm: 19.04.2018 10:00:00 - 25.04.2018 10:00:00 (CEST)Westdorpe aws, Pays-Bas (6319): Vitesse du vent & gusts: 19.04.2018 10:00:00 - 25.04.2018 10:00:00 (CEST)Westdorpe aws, Pays-Bas (6319): Direction du vent: 19.04.2018 10:00:00 - 25.04.2018 10:00:00 (CEST)Westdorpe aws, Pays-Bas (6319): reduced air pressure: 19.04.2018 10:00:00 - 25.04.2018 10:00:00 (CEST)Westdorpe aws, Pays-Bas (6319): visibility: 19.04.2018 10:00:00 - 25.04.2018 10:00:00 (CEST)Westdorpe aws, Pays-Bas (6319): Quantités de précipitations: 19.04.2018 10:00:00 - 25.04.2018 10:00:00 (CEST)
Date & Time tt [°C] td [°C] tt 5cm [°C] ff [km/h] ff [knt] fx [km/h] fx [knt] dd ppp [hPa] vv [km] rr [mm]
25.04.2018 10:00:00 11,4 7,2 11,9 25 14 40 21 WNW 1012,1 30 -
25.04.2018 09:00:00 11,3 8,6 10,7 18 10 29 16 W 1011,3 30 0,0
25.04.2018 08:00:00 10,9 8,5 10,6 18 10 43 23 W 1010,8 23 0,0
25.04.2018 07:00:00 11,4 10,1 11,1 25 14 40 21 WSW 1009,7 16 0,0
25.04.2018 06:00:00 11,5 10,4 11,2 25 14 36 19 WSW 1009,2 31 0,2
25.04.2018 05:00:00 11,5 10,7 11,3 25 14 50 27 WSW 1008,9 3,4 0,0
25.04.2018 04:00:00 12,8 10,2 12,4 32 18 50 27 WSW 1008,8 33 0,0
25.04.2018 03:00:00 13,1 10,6 12,8 29 16 40 21 SW 1009,1 47 0,0
25.04.2018 02:00:00 13,2 10,1 12,7 25 14 36 19 WSW 1009,3 48 0,0
25.04.2018 01:00:00 13,4 10,3 13,0 22 12 32 18 SW 1009,8 45 0,0
25.04.2018 00:00:00 13,6 10,3 13,1 22 12 32 18 SW 1010,6 38 0,0
24.04.2018 23:00:00 13,7 10,2 13,1 22 12 43 23 SW 1011,4 28 0,0
24.04.2018 22:00:00 14,7 10,2 14,2 22 12 36 19 SW 1012,2 41 0,0
24.04.2018 21:00:00 14,7 9,8 14,0 14 8 22 12 SW 1012,6 46 0,0
24.04.2018 20:00:00 14,9 9,4 14,3 18 10 32 18 SW 1013,0 49 0,0
24.04.2018 19:00:00 15,5 9,0 15,3 25 14 36 19 SW 1013,6 48 0,0
24.04.2018 18:00:00 15,7 8,9 15,9 22 12 36 19 SW 1014,2 38 0,0
24.04.2018 17:00:00 15,6 8,7 15,7 22 12 40 21 SW 1014,9 37 0,0
24.04.2018 16:00:00 15,6 9,5 16,8 25 14 43 23 SW 1015,7 36 0,0
24.04.2018 15:00:00 15,2 9,0 16,4 22 12 36 19 SW 1016,5 32 0,0
24.04.2018 14:00:00 14,5 9,0 14,9 22 12 32 18 WSW 1016,9 40 0,0
24.04.2018 13:00:00 13,9 9,6 14,8 22 12 32 18 WSW 1017,3 30 0,0
24.04.2018 12:00:00 12,8 9,5 13,2 18 10 32 18 SW 1017,6 22 0,0
24.04.2018 11:00:00 12,1 9,3 12,5 25 14 32 18 WSW 1017,5 17 0,0
24.04.2018 10:00:00 11,5 9,1 11,6 22 12 32 18 SW 1017,2 16 0,0
24.04.2018 09:00:00 11,0 8,1 11,1 22 12 29 16 SW 1017,0 19 0,0
24.04.2018 08:00:00 10,6 7,5 10,5 22 12 32 18 SW 1016,5 26 0,0
24.04.2018 07:00:00 10,1 6,7 9,7 18 10 32 18 SW 1016,4 35 0,0
24.04.2018 06:00:00 10,0 6,1 9,7 22 12 36 19 SW 1016,3 32 0,0
24.04.2018 05:00:00 9,7 5,9 9,3 22 12 36 19 SW 1016,5 21 0,0
24.04.2018 04:00:00 9,6 5,9 9,0 25 14 36 19 SW 1016,3 40 0,0
24.04.2018 03:00:00 9,4 5,8 8,7 25 14 40 21 SW 1016,6 40 0,0
24.04.2018 02:00:00 9,4 5,8 8,7 22 12 40 21 SW 1017,0 45 0,0
24.04.2018 01:00:00 9,4 5,8 8,4 22 12 32 18 SW 1017,3 41 0,0
24.04.2018 00:00:00 9,5 5,9 8,6 22 12 32 18 SW 1017,8 35 0,0
23.04.2018 23:00:00 9,9 6,3 8,7 14 8 32 18 SW 1017,9 42 0,0
23.04.2018 22:00:00 10,9 6,1 9,8 22 12 36 19 SW 1017,8 48 0,0
23.04.2018 21:00:00 11,9 6,2 10,8 22 12 36 19 SW 1017,5 49 0,0
23.04.2018 20:00:00 13,9 6,8 13,2 22 12 36 19 SW 1017,1 38 0,0
23.04.2018 19:00:00 14,5 6,7 14,5 25 14 36 19 WSW 1017,1 41 0,0
23.04.2018 18:00:00 15,3 7,2 15,4 25 14 36 19 WSW 1017,2 43 0,0
23.04.2018 17:00:00 15,8 7,1 16,1 25 14 32 18 WSW 1017,2 44 0,0
23.04.2018 16:00:00 15,4 8,3 16,1 18 10 32 18 W 1017,4 43 0,0
23.04.2018 15:00:00 15,6 9,1 16,9 18 10 29 16 W 1017,4 32 0,0
23.04.2018 14:00:00 15,8 8,2 18,2 18 10 29 16 W 1017,1 37 0,0
23.04.2018 13:00:00 15,0 8,2 16,9 18 10 32 18 WSW 1017,4 32 0,0
23.04.2018 12:00:00 14,8 8,6 17,6 18 10 29 16 WSW 1017,3 24 0,0
23.04.2018 11:00:00 12,5 8,6 13,4 18 10 29 16 W 1016,9 20 0,0
23.04.2018 10:00:00 12,2 9,1 12,7 18 10 29 16 W 1016,4 15 0,0
23.04.2018 09:00:00 11,8 9,6 12,2 22 12 29 16 WSW 1015,7 11 0,0
23.04.2018 08:00:00 10,7 9,2 10,4 18 10 25 14 WSW 1015,2 9 0,0
23.04.2018 07:00:00 9,8 8,5 8,8 11 6 22 12 WSW 1014,6 8 0,0
23.04.2018 06:00:00 10,2 8,4 9,2 11 6 22 12 SW 1014,2 12 0,0
23.04.2018 05:00:00 11,0 8,0 10,0 14 8 22 12 WSW 1013,8 24 0,0
23.04.2018 04:00:00 11,7 7,1 10,1 14 8 22 12 WSW 1013,4 33 0,0
23.04.2018 03:00:00 12,7 5,8 11,7 18 10 29 16 WSW 1013,1 47 0,0
23.04.2018 02:00:00 13,9 6,7 12,5 18 10 29 16 SW 1012,4 45 0,0
23.04.2018 01:00:00 15,0 9,0 13,4 18 10 32 18 WSW 1012,2 32 0,0
23.04.2018 00:00:00 16,0 9,3 15,0 25 14 40 21 WSW 1012,0 32 0,0
22.04.2018 23:00:00 17,5 10,2 16,3 18 10 32 18 WSW 1011,3 29 0,0
22.04.2018 22:00:00 18,6 10,0 17,1 18 10 32 18 SW 1011,0 28 0,0
22.04.2018 21:00:00 19,0 11,2 17,1 18 10 29 16 WSW 1010,5 29 0,0
22.04.2018 20:00:00 21,0 11,9 19,4 18 10 29 16 WSW 1009,9 25 0,0
22.04.2018 19:00:00 22,8 12,4 22,0 22 12 32 18 WSW 1009,7 29 0,0
22.04.2018 18:00:00 23,0 15,6 23,1 14 8 29 16 WNW 1009,5 21 0,0
22.04.2018 17:00:00 22,9 16,7 23,3 18 10 36 19 WNW 1009,5 14 0,0
22.04.2018 16:00:00 23,5 13,7 22,7 18 10 36 19 W 1009,3 24 0,0
22.04.2018 15:00:00 25,3 13,6 26,5 25 14 36 19 WSW 1009,7 34 0,0
22.04.2018 14:00:00 25,1 12,9 26,3 18 10 29 16 SSW 1009,8 29 0,0
22.04.2018 13:00:00 24,0 13,7 26,4 14 8 22 12 S 1010,1 17 0,0
22.04.2018 12:00:00 23,1 13,7 25,3 11 6 14 8 S 1010,7 14 0,0
22.04.2018 11:00:00 20,1 13,3 21,3 11 6 18 10 SSE 1011,6 10 0,0
22.04.2018 10:00:00 16,3 11,8 16,7 11 6 18 10 SE 1011,9 12 0,0
22.04.2018 09:00:00 14,7 10,4 14,4 7 4 11 6 ESE 1012,2 13 0,0
22.04.2018 08:00:00 12,4 10,7 11,4 7 4 11 6 S 1013,1 8 0,0
22.04.2018 07:00:00 10,6 8,9 8,2 7 4 25 14 W 1013,7 11 0,0
22.04.2018 06:00:00 10,4 9,2 6,9 7 4 11 6 SW 1013,9 10 0,0
22.04.2018 05:00:00 10,4 8,9 7,0 4 2 7 4 ESE 1014,0 12 0,0
22.04.2018 04:00:00 12,8 8,8 7,8 7 4 11 6 ESE 1014,5 17 0,0
22.04.2018 03:00:00 11,8 9,1 7,0 4 2 7 4 E 1015,3 15 0,0
22.04.2018 02:00:00 14,4 9,3 9,7 4 2 18 10 ESE 1016,1 19 0,0
22.04.2018 01:00:00 14,7 9,8 11,2 7 4 14 8 E 1016,2 19 0,0
22.04.2018 00:00:00 14,8 10,6 8,3 7 4 11 6 E 1016,9 12 0,0
21.04.2018 23:00:00 15,1 11,5 9,9 7 4 11 6 E 1017,5 21 0,0
21.04.2018 22:00:00 15,8 11,5 11,1 4 2 14 8 E 1017,9 25 0,0
21.04.2018 21:00:00 16,4 11,5 14,1 11 6 14 8 NE 1017,9 18 0,0
21.04.2018 20:00:00 19,5 12,2 18,2 11 6 22 12 NNE 1018,0 27 0,0
21.04.2018 19:00:00 21,4 13,3 20,9 11 6 18 10 NNE 1018,5 22 0,0
21.04.2018 18:00:00 22,4 12,7 22,6 14 8 22 12 NNE 1019,0 25 0,0
21.04.2018 17:00:00 22,6 13,4 23,3 14 8 22 12 NE 1019,5 17 0,0
21.04.2018 16:00:00 23,1 12,3 24,0 11 6 22 12 ENE 1020,2 18 0,0
21.04.2018 15:00:00 22,4 13,1 23,8 11 6 18 10 ENE 1021,0 17 0,0
21.04.2018 14:00:00 21,8 13,2 22,2 7 4 22 12 ENE 1021,4 13 0,0
21.04.2018 13:00:00 20,2 12,5 21,7 11 6 18 10 NE 1022,2 10 0,0
21.04.2018 12:00:00 18,8 12,5 20,7 7 4 14 8 NE 1022,7 9 0,0
21.04.2018 11:00:00 17,3 11,7 19,4 7 4 14 8 NE 1022,8 8 0,0
21.04.2018 10:00:00 15,5 11,5 16,5 11 6 14 8 ENE 1022,9 6 0,0
21.04.2018 09:00:00 13,3 11,0 13,0 7 4 11 6 ENE 1022,9 3,3 0,0
21.04.2018 08:00:00 10,4 9,8 8,5 4 2 11 6 ENE 1022,9 1,7 0,0
21.04.2018 07:00:00 8,3 8,0 6,4 7 4 11 6 NNE 1022,7 1,0 0,0
21.04.2018 06:00:00 8,1 7,7 3,7 7 4 11 6 N 1022,4 1,3 0,0
21.04.2018 05:00:00 8,7 8,2 4,3 4 2 4 2 NW 1022,6 1,0 0,0
21.04.2018 04:00:00 8,7 8,4 4,4 4 2 4 2 NW 1022,4 0,8 0,0
21.04.2018 03:00:00 9,5 8,7 5,1 4 2 7 4 WSW 1022,6 2,1 0,0
21.04.2018 02:00:00 9,0 8,3 5,8 7 4 11 6 NW 1023,0 1,6 0,0
21.04.2018 01:00:00 9,3 8,5 6,6 7 4 11 6 WNW 1023,2 1,9 0,0
21.04.2018 00:00:00 9,9 8,8 8,5 7 4 18 10 NW 1023,1 2,2 0,0
20.04.2018 23:00:00 11,1 8,8 9,2 11 6 14 8 NW 1023,1 3,3 0,0
20.04.2018 22:00:00 13,7 10,8 9,4 4 2 11 6 NW 1023,0 6 0,0
20.04.2018 21:00:00 15,0 10,8 12,4 7 4 18 10 NNW 1022,8 7 0,0
20.04.2018 20:00:00 17,6 12,6 16,2 14 8 22 12 NNW 1022,5 9 0,0
20.04.2018 19:00:00 19,4 12,6 18,4 14 8 29 16 NW 1022,5 14 0,0
20.04.2018 18:00:00 22,6 13,0 21,9 22 12 25 14 NNW 1022,4 18 0,0
20.04.2018 17:00:00 23,9 10,6 23,2 18 10 25 14 NW 1022,5 37 0,0
20.04.2018 16:00:00 24,2 10,7 24,3 18 10 25 14 WNW 1022,7 34 0,0
20.04.2018 15:00:00 24,3 12,0 24,0 18 10 29 16 NW 1023,0 19 0,0
20.04.2018 14:00:00 25,1 14,3 25,8 14 8 22 12 WNW 1023,0 22 0,0
20.04.2018 13:00:00 24,1 15,5 25,7 18 10 22 12 W 1023,2 18 0,0
20.04.2018 12:00:00 23,2 15,0 24,9 14 8 22 12 WSW 1023,2 18 0,0
20.04.2018 11:00:00 22,3 14,3 23,4 11 6 18 10 WSW 1023,0 24 0,0
20.04.2018 10:00:00 20,3 13,9 20,0 11 6 18 10 SW 1022,8 23 0,0
20.04.2018 09:00:00 18,2 14,3 16,6 4 2 18 10 WSW 1022,8 15 0,0
20.04.2018 08:00:00 15,1 11,9 12,6 7 4 14 8 SSE 1022,7 17 0,0
20.04.2018 07:00:00 12,0 10,7 7,3 4 2 7 4 SE 1022,6 12 0,0
20.04.2018 06:00:00 10,8 10,3 7,5 4 2 11 6 S 1022,6 10 0,0
20.04.2018 05:00:00 11,9 10,6 8,0 4 2 7 4 SE 1022,7 14 0,0
20.04.2018 04:00:00 12,4 10,2 8,4 4 2 7 4 SSE 1023,0 15 0,0
20.04.2018 03:00:00 13,3 11,3 8,7 4 2 4 2 SE 1023,1 18 0,0
20.04.2018 02:00:00 13,1 11,8 9,5 0 0 7 4 N 1023,6 17 0,0
20.04.2018 01:00:00 14,3 11,9 9,7 4 2 7 4 SE 1023,6 23 0,0
20.04.2018 00:00:00 15,2 12,4 9,6 4 2 7 4 ESE 1023,7 32 0,0
19.04.2018 23:00:00 15,3 12,3 10,1 4 2 7 4 ESE 1023,9 41 0,0
19.04.2018 22:00:00 17,9 12,8 11,5 0 0 7 4 N 1023,9 47 0,0
19.04.2018 21:00:00 21,7 12,2 15,4 4 2 14 8 SW 1023,4 44 0,0
19.04.2018 20:00:00 24,6 11,5 20,8 11 6 14 8 S 1023,2 50 0,0
19.04.2018 19:00:00 26,3 10,5 23,8 7 4 14 8 S 1023,2 41 0,0
19.04.2018 18:00:00 26,9 10,4 25,8 11 6 25 14 S 1023,5 39 0,0
19.04.2018 17:00:00 26,8 10,9 26,1 11 6 22 12 S 1023,8 30 0,0
19.04.2018 16:00:00 26,7 9,5 26,7 11 6 22 12 SSE 1024,2 24 0,0
19.04.2018 15:00:00 26,0 10,8 26,1 11 6 22 12 SE 1024,7 26 0,0
19.04.2018 14:00:00 25,3 10,0 26,5 11 6 18 10 S 1024,9 24 0,0
19.04.2018 13:00:00 24,4 9,8 25,1 11 6 18 10 S 1025,4 25 0,0
19.04.2018 12:00:00 23,0 11,0 23,9 11 6 18 10 SSE 1025,7 24 0,0
19.04.2018 11:00:00 21,3 9,4 22,1 11 6 18 10 SSE 1025,8 24 0,0
19.04.2018 10:00:00 19,7 9,8 20,0 11 6 14 8 SE 1025,9 21 0,0

tt = Température de l'air
td = dewpoint
tt 5cm = Température de l'air 5cm
ff = Vitesse du vent
fx = gusts
dd = Direction du vent
ppp = reduced air pressure
vv = visibility
rr = Quantités de précipitations

stations d'obs. à proximité